| time (UTC) | temp F | wind direction | speed MPH | gust MPH | rain 1hr in | rain 24hr in | rain mn in | humidity % | barometer mb |
| 20260906154633 | 87 | 275 | 0.0 | 3.0 | 0.00 | 0.03 | 0.01 | 76 | 1013.2 |
| 20260906141655 | 79 | 111 | 0.0 | 0.0 | 0.00 | 0.03 | 0.01 | 89 | 1013.1 |
| 20260906131522 | 75 | 111 | 0.0 | 0.0 | 0.00 | 0.03 | 0.01 | 96 | 1012.5 |
| 20260906124655 | 74 | 111 | 0.0 | 0.0 | 0.00 | 0.03 | 0.01 | 97 | 1012.4 |
| 20260906113014 | 74 | 111 | 0.0 | 0.0 | 0.00 | 0.03 | 0.01 | 96 | 1011.7 |
| 20260906111603 | 74 | 111 | 0.0 | 0.0 | 0.00 | 0.03 | 0.01 | 96 | 1011.7 |
| 20260906101523 | 74 | 111 | 0.0 | 0.0 | 0.01 | 0.03 | 0.01 | 96 | 1011.2 |
| 20260906094652 | 74 | 111 | 0.0 | 0.0 | 0.00 | 0.02 | 0.00 | 96 | 1011.0 |
| 20260906093152 | 74 | 111 | 0.0 | 0.0 | 0.00 | 0.02 | 0.00 | 96 | 1011.1 |
| 20260906084653 | 75 | 111 | 0.0 | 0.0 | 0.00 | 0.02 | 0.00 | 95 | 1011.2 |
| 20260906083035 | 75 | 111 | 0.0 | 0.0 | 0.00 | 0.02 | 0.00 | 95 | 1011.1 |
| 20260906081541 | 75 | 111 | 0.0 | 0.0 | 0.00 | 0.02 | 0.00 | 95 | 1011.1 |
| 20260906080115 | 75 | 88 | 0.0 | 0.0 | 0.00 | 0.02 | 0.00 | 95 | 1011.2 |
| 20260906070050 | 76 | 88 | 0.0 | 0.0 | 0.00 | 0.02 | 0.00 | 94 | 1011.1 |
| 20260906064547 | 76 | 88 | 0.0 | 1.0 | 0.00 | 0.02 | 0.00 | 94 | 1011.1 |
| 20260906063013 | 76 | 88 | 0.0 | 1.0 | 0.00 | 0.02 | 0.00 | 94 | 1011.2 |
| 20260906061539 | 76 | 88 | 0.0 | 0.0 | 0.00 | 0.02 | 0.00 | 94 | 1010.9 |
| 20260906060115 | 76 | 88 | 0.0 | 2.0 | 0.00 | 0.02 | 0.00 | 93 | 1011.0 |
| 20260906054544 | 76 | 265 | 0.0 | 0.0 | 0.00 | 0.02 | 0.00 | 93 | 1011.0 |
| 20260906053043 | 76 | 265 | 0.0 | 0.0 | 0.00 | 0.02 | 0.00 | 93 | 1011.0 |
| 20260906051526 | 76 | 265 | 0.0 | 0.0 | 0.00 | 0.02 | 0.02 | 93 | 1010.9 |
| 20260906050117 | 76 | 265 | 0.0 | 0.0 | 0.00 | 0.02 | 0.02 | 92 | 1010.8 |
| 20260906044645 | 76 | 265 | 0.0 | 0.0 | 0.00 | 0.02 | 0.02 | 92 | 1010.8 |
| 20260906043114 | 76 | 265 | 0.0 | 0.0 | 0.00 | 0.02 | 0.02 | 92 | 1010.9 |
| 20260906040109 | 76 | 265 | 0.0 | 0.0 | 0.00 | 0.02 | 0.02 | 92 | 1010.8 |
| 20260906021544 | 77 | 265 | 0.0 | 2.0 | 0.00 | 0.02 | 0.02 | 91 | 1010.7 |
| 20260906020127 | 78 | 282 | 0.0 | 1.0 | 0.00 | 0.02 | 0.02 | 91 | 1010.6 |
| 20260906014657 | 78 | 277 | 0.0 | 2.0 | 0.00 | 0.02 | 0.02 | 91 | 1010.9 |
| 20260906003152 | 79 | 283 | 0.0 | 2.0 | 0.00 | 0.02 | 0.02 | 87 | 1010.4 |
| 20260906000127 | 80 | 257 | 0.0 | 0.0 | 0.00 | 0.02 | 0.02 | 87 | 1010.6 |
| 20260905221602 | 80 | 254 | 0.0 | 1.0 | 0.00 | 0.02 | 0.02 | 86 | 1010.3 |
| 20260905213138 | 80 | 243 | 0.0 | 0.0 | 0.01 | 0.02 | 0.02 | 86 | 1010.6 |
| 20260905211516 | 79 | 223 | 0.0 | 1.0 | 0.02 | 0.02 | 0.02 | 86 | 1010.2 |
| 20260905200131 | 93 | 284 | 0.0 | 3.0 | 0.00 | 0.00 | 0.00 | 56 | 1010.8 |
| 20260905194508 | 96 | 130 | 0.0 | 1.0 | 0.00 | 0.00 | 0.00 | 52 | 1010.3 |
| 20260905191558 | 93 | 277 | 0.0 | 2.0 | 0.00 | 0.00 | 0.00 | 54 | 1010.4 |
| 20260905170151 | 94 | 135 | 0.0 | 2.0 | 0.00 | 0.00 | 0.00 | 56 | 1012.5 |
| 20260905164514 | 92 | 225 | 0.0 | 2.0 | 0.00 | 0.00 | 0.00 | 62 | 1012.7 |